Year,Month,Day,Hour,Minute,Value (Times are PST for temperature in C)
2016,11,26,00,00,7.20
2016,11,26,00,01,7.20
2016,11,26,00,02,7.20
2016,11,26,00,03,7.20
2016,11,26,00,04,7.20
2016,11,26,00,05,7.20
2016,11,26,00,06,7.20
2016,11,26,00,07,7.20
2016,11,26,00,08,7.20
2016,11,26,00,09,7.20
2016,11,26,00,10,7.20
2016,11,26,00,11,7.20
2016,11,26,00,12,7.20
2016,11,26,00,13,7.20
2016,11,26,00,14,7.20
2016,11,26,00,15,7.20
2016,11,26,00,16,7.20
2016,11,26,00,17,7.20
2016,11,26,00,18,7.20
2016,11,26,00,19,7.20
2016,11,26,00,20,7.20
2016,11,26,00,21,7.20
2016,11,26,00,22,7.20
2016,11,26,00,23,7.20
2016,11,26,00,24,7.20
2016,11,26,00,25,7.20
2016,11,26,00,26,7.20
2016,11,26,00,27,7.20
2016,11,26,00,28,7.20
2016,11,26,00,29,7.30
2016,11,26,00,30,7.20
2016,11,26,00,31,7.20
2016,11,26,00,32,7.20
2016,11,26,00,33,7.20
2016,11,26,00,34,7.20
2016,11,26,00,35,7.20
2016,11,26,00,36,7.20
2016,11,26,00,37,7.20
2016,11,26,00,38,7.20
2016,11,26,00,39,7.20
2016,11,26,00,40,7.20
2016,11,26,00,41,7.30
2016,11,26,00,42,7.30
2016,11,26,00,43,7.30
2016,11,26,00,44,7.30
2016,11,26,00,45,7.30
2016,11,26,00,46,7.30
2016,11,26,00,47,7.30
2016,11,26,00,48,7.30
2016,11,26,00,49,7.30
2016,11,26,00,50,7.30
2016,11,26,00,51,7.30
2016,11,26,00,52,7.30
2016,11,26,00,53,7.30
2016,11,26,00,54,7.30
2016,11,26,00,55,7.30
2016,11,26,00,56,7.30
2016,11,26,00,57,7.30
2016,11,26,00,58,7.30
2016,11,26,00,59,7.30
2016,11,26,01,00,7.30
2016,11,26,01,01,7.30
2016,11,26,01,02,7.30
2016,11,26,01,03,7.30
2016,11,26,01,04,7.30
2016,11,26,01,05,7.30
2016,11,26,01,06,7.30
2016,11,26,01,07,7.30
2016,11,26,01,08,7.30
2016,11,26,01,09,7.30
2016,11,26,01,10,7.30
2016,11,26,01,11,7.30
2016,11,26,01,12,7.30
2016,11,26,01,13,7.30
2016,11,26,01,14,7.30
2016,11,26,01,15,7.30
2016,11,26,01,16,7.30
2016,11,26,01,17,7.30
2016,11,26,01,18,7.30
2016,11,26,01,19,7.30
2016,11,26,01,20,7.30
2016,11,26,01,21,7.20
2016,11,26,01,22,7.20
2016,11,26,01,23,7.20
2016,11,26,01,24,7.20
2016,11,26,01,25,7.20
2016,11,26,01,26,7.20
2016,11,26,01,27,7.20
2016,11,26,01,28,7.20
2016,11,26,01,29,7.20
2016,11,26,01,30,7.20
2016,11,26,01,31,7.20
2016,11,26,01,32,7.20
2016,11,26,01,33,7.20
2016,11,26,01,34,7.30
2016,11,26,01,35,7.20
2016,11,26,01,36,7.20
2016,11,26,01,37,7.30
2016,11,26,01,38,7.30
2016,11,26,01,39,7.30
2016,11,26,01,40,7.30
2016,11,26,01,41,7.30
2016,11,26,01,42,7.30
2016,11,26,01,43,7.20
2016,11,26,01,44,7.20
2016,11,26,01,45,7.20
2016,11,26,01,46,7.20
2016,11,26,01,47,7.20
2016,11,26,01,48,7.20
2016,11,26,01,49,7.30
2016,11,26,01,50,7.20
2016,11,26,01,51,7.30
2016,11,26,01,52,7.30
2016,11,26,01,53,7.30
2016,11,26,01,54,7.20
2016,11,26,01,55,7.20
2016,11,26,01,56,7.20
2016,11,26,01,57,7.20
2016,11,26,01,58,7.20
2016,11,26,01,59,7.20
2016,11,26,02,00,7.20
2016,11,26,02,01,7.20
2016,11,26,02,02,7.20
2016,11,26,02,03,7.20
2016,11,26,02,04,7.20
2016,11,26,02,05,7.20
2016,11,26,02,06,7.20
2016,11,26,02,07,7.20
2016,11,26,02,08,7.20
2016,11,26,02,09,7.20
2016,11,26,02,10,7.20
2016,11,26,02,11,7.20
2016,11,26,02,12,7.20
2016,11,26,02,13,7.20
2016,11,26,02,14,7.20
2016,11,26,02,15,7.20
2016,11,26,02,16,7.20
2016,11,26,02,17,7.20
2016,11,26,02,18,7.20
2016,11,26,02,19,7.20
2016,11,26,02,20,7.20
2016,11,26,02,21,7.20
2016,11,26,02,22,7.20
2016,11,26,02,23,7.20
2016,11,26,02,24,7.20
2016,11,26,02,25,7.20
2016,11,26,02,26,7.10
2016,11,26,02,27,7.10
2016,11,26,02,28,7.10
2016,11,26,02,29,7.10
2016,11,26,02,30,7.10
2016,11,26,02,31,7.10
2016,11,26,02,32,7.10
2016,11,26,02,33,7.10
2016,11,26,02,34,7.10
2016,11,26,02,35,7.10
2016,11,26,02,36,7.10
2016,11,26,02,37,7.10
2016,11,26,02,38,7.10
2016,11,26,02,39,7.10
2016,11,26,02,40,7.10
2016,11,26,02,41,7.10
2016,11,26,02,42,7.10
2016,11,26,02,43,7.10
2016,11,26,02,44,7.10
2016,11,26,02,45,7.10
2016,11,26,02,46,7.10
2016,11,26,02,47,7.10
2016,11,26,02,48,7.10
2016,11,26,02,49,7.10
2016,11,26,02,50,7.10
2016,11,26,02,51,7.10
2016,11,26,02,52,7.10
2016,11,26,02,53,7.10
2016,11,26,02,54,7.10
2016,11,26,02,55,7.20
2016,11,26,02,56,7.20
2016,11,26,02,57,7.20
2016,11,26,02,58,7.20
2016,11,26,02,59,7.20
2016,11,26,03,00,7.20
2016,11,26,03,01,7.20
2016,11,26,03,02,7.20
2016,11,26,03,03,7.20
2016,11,26,03,04,7.20
2016,11,26,03,05,7.20
2016,11,26,03,06,7.20
2016,11,26,03,07,7.20
2016,11,26,03,08,7.20
2016,11,26,03,09,7.20
2016,11,26,03,10,7.20
2016,11,26,03,11,7.20
2016,11,26,03,12,7.30
2016,11,26,03,13,7.30
2016,11,26,03,14,7.30
2016,11,26,03,15,7.30
2016,11,26,03,16,7.30
2016,11,26,03,17,7.30
2016,11,26,03,18,7.30
2016,11,26,03,19,7.30
2016,11,26,03,20,7.30
2016,11,26,03,21,7.30
2016,11,26,03,22,7.30
2016,11,26,03,23,7.30
2016,11,26,03,24,7.30
2016,11,26,03,25,7.40
2016,11,26,03,26,7.40
2016,11,26,03,27,7.40
2016,11,26,03,28,7.40
2016,11,26,03,29,7.40
2016,11,26,03,30,7.40
2016,11,26,03,31,7.40
2016,11,26,03,32,7.40
2016,11,26,03,33,7.40
2016,11,26,03,34,7.40
2016,11,26,03,35,7.40
2016,11,26,03,36,7.40
2016,11,26,03,37,7.40
2016,11,26,03,38,7.40
2016,11,26,03,39,7.40
2016,11,26,03,40,7.40
2016,11,26,03,41,7.40
2016,11,26,03,42,7.40
2016,11,26,03,43,7.40
2016,11,26,03,44,7.40
2016,11,26,03,45,7.40
2016,11,26,03,46,7.40
2016,11,26,03,47,7.40
2016,11,26,03,48,7.40
2016,11,26,03,49,7.40
2016,11,26,03,50,7.40
2016,11,26,03,51,7.40
2016,11,26,03,52,7.40
2016,11,26,03,53,7.40
2016,11,26,03,54,7.40
2016,11,26,03,55,7.40
2016,11,26,03,56,7.40
2016,11,26,03,57,7.40
2016,11,26,03,58,7.40
2016,11,26,03,59,7.40
2016,11,26,04,00,7.40
2016,11,26,04,01,7.40
2016,11,26,04,02,7.40
2016,11,26,04,03,7.50
2016,11,26,05,04,7.80
2016,11,26,05,05,7.80
2016,11,26,05,06,7.90
2016,11,26,05,07,8.00
2016,11,26,05,08,8.00
2016,11,26,05,09,8.10
2016,11,26,05,10,8.20
2016,11,26,05,11,8.30
2016,11,26,05,12,8.30
2016,11,26,05,13,8.30
2016,11,26,05,14,8.40
2016,11,26,05,15,8.40
2016,11,26,05,16,8.40
2016,11,26,05,17,8.50
2016,11,26,05,18,8.50
2016,11,26,05,19,8.50
2016,11,26,05,20,8.60
2016,11,26,05,21,8.60
2016,11,26,05,22,8.60
2016,11,26,05,23,8.70
2016,11,26,05,24,8.70
2016,11,26,05,25,8.70
2016,11,26,05,26,8.70
2016,11,26,05,27,8.80
2016,11,26,05,28,8.80
2016,11,26,05,29,8.80
2016,11,26,05,30,8.80
2016,11,26,05,31,8.80
2016,11,26,05,32,8.80
2016,11,26,05,33,8.80
2016,11,26,05,34,8.80
2016,11,26,05,35,8.90
2016,11,26,05,36,8.90
2016,11,26,05,37,8.90
2016,11,26,05,38,8.90
2016,11,26,05,39,8.90
2016,11,26,05,40,8.90
2016,11,26,05,41,8.90
2016,11,26,05,42,8.90
2016,11,26,05,43,9.00
2016,11,26,05,44,9.00
2016,11,26,05,45,9.00
2016,11,26,05,46,9.10
2016,11,26,05,47,9.10
2016,11,26,05,48,9.10
2016,11,26,05,49,9.10
2016,11,26,05,50,9.10
2016,11,26,05,51,9.20
2016,11,26,05,52,9.20
2016,11,26,05,53,9.20
2016,11,26,05,54,9.20
2016,11,26,05,55,9.20
2016,11,26,05,56,9.20
2016,11,26,05,57,9.20
2016,11,26,05,58,9.20
2016,11,26,05,59,9.20
2016,11,26,06,00,9.20
2016,11,26,06,01,9.20
2016,11,26,06,02,9.20
2016,11,26,06,03,9.20
2016,11,26,06,04,9.30
2016,11,26,06,05,9.30
2016,11,26,06,06,9.30
2016,11,26,06,07,9.30
2016,11,26,06,08,9.30
2016,11,26,06,09,9.30
2016,11,26,06,10,9.30
2016,11,26,06,11,9.30
2016,11,26,06,12,9.30
2016,11,26,06,13,9.30
2016,11,26,06,14,9.30
2016,11,26,06,15,9.30
2016,11,26,06,16,9.30
2016,11,26,06,17,9.30
2016,11,26,06,18,9.30
2016,11,26,06,19,9.30
2016,11,26,06,20,9.30
2016,11,26,06,21,9.40
2016,11,26,06,22,9.40
2016,11,26,06,23,9.40
2016,11,26,06,24,9.30
2016,11,26,06,25,9.30
2016,11,26,06,26,9.40
2016,11,26,06,27,9.40
2016,11,26,06,28,9.30
2016,11,26,06,29,9.40
2016,11,26,06,30,9.40
2016,11,26,06,31,9.40
2016,11,26,06,32,9.40
2016,11,26,06,33,9.40
2016,11,26,06,34,9.40
2016,11,26,06,35,9.40
2016,11,26,06,36,9.40
2016,11,26,06,37,9.40
2016,11,26,06,38,9.40
2016,11,26,06,39,9.40
2016,11,26,06,40,9.40
2016,11,26,06,41,9.40
2016,11,26,06,42,9.40
2016,11,26,06,43,9.40
2016,11,26,06,44,9.40
2016,11,26,06,45,9.40
2016,11,26,06,46,9.40
2016,11,26,06,47,9.40
2016,11,26,06,48,9.40
2016,11,26,06,49,9.40
2016,11,26,06,50,9.40
2016,11,26,06,51,9.40
2016,11,26,06,52,9.40
2016,11,26,06,53,9.40
2016,11,26,06,54,9.40
2016,11,26,06,55,9.40
2016,11,26,06,56,9.40
2016,11,26,06,57,9.40
2016,11,26,06,58,9.40
2016,11,26,06,59,9.50
2016,11,26,07,00,9.50
2016,11,26,07,01,9.50
2016,11,26,07,02,9.50
2016,11,26,07,03,9.50
2016,11,26,07,04,9.50
2016,11,26,07,05,9.50
2016,11,26,07,06,9.50
2016,11,26,07,07,9.50
2016,11,26,07,08,9.50
2016,11,26,07,09,9.50
2016,11,26,07,10,9.50
2016,11,26,07,11,9.40
2016,11,26,07,12,9.20
2016,11,26,07,13,9.10
2016,11,26,07,14,8.90
2016,11,26,07,15,8.80
2016,11,26,07,16,8.70
2016,11,26,07,17,8.50
2016,11,26,07,18,8.40
2016,11,26,07,19,8.30
2016,11,26,07,20,8.30
2016,11,26,07,21,8.20
2016,11,26,07,22,8.10
2016,11,26,07,23,8.10
2016,11,26,07,24,8.00
2016,11,26,07,25,8.00
2016,11,26,07,26,7.90
2016,11,26,07,27,7.80
2016,11,26,07,28,7.80
2016,11,26,07,29,7.70
2016,11,26,07,30,7.60
2016,11,26,07,31,7.60
2016,11,26,07,32,7.50
2016,11,26,07,33,7.40
2016,11,26,07,34,7.40
2016,11,26,07,35,7.30
2016,11,26,07,36,7.30
2016,11,26,07,37,7.20
2016,11,26,07,38,7.20
2016,11,26,07,39,7.10
2016,11,26,07,40,7.10
2016,11,26,07,41,7.00
2016,11,26,07,42,7.00
2016,11,26,07,43,6.90
2016,11,26,07,44,6.90
2016,11,26,07,45,6.80
2016,11,26,07,46,6.80
2016,11,26,07,47,6.70
2016,11,26,07,48,6.70
2016,11,26,07,49,6.70
2016,11,26,07,50,6.60
2016,11,26,07,51,6.60
2016,11,26,07,52,6.60
2016,11,26,07,53,6.50
2016,11,26,07,54,6.50
2016,11,26,07,55,6.40
2016,11,26,07,56,6.40
2016,11,26,07,57,6.40
2016,11,26,07,58,6.30
2016,11,26,07,59,6.30
2016,11,26,08,00,6.30
2016,11,26,08,01,6.30
2016,11,26,08,02,6.20
2016,11,26,08,03,6.20
2016,11,26,08,04,6.10
2016,11,26,08,05,6.10
2016,11,26,08,06,6.10
2016,11,26,08,07,6.10
2016,11,26,08,08,6.10
2016,11,26,08,09,6.10
2016,11,26,08,10,6.10
2016,11,26,08,11,6.10
2016,11,26,08,12,6.00
2016,11,26,08,13,6.00
2016,11,26,08,14,6.00
2016,11,26,08,15,6.00
2016,11,26,08,16,5.90
2016,11,26,08,17,5.90
2016,11,26,08,18,5.90
2016,11,26,08,19,5.90
2016,11,26,08,20,5.90
2016,11,26,08,21,5.90
2016,11,26,08,22,5.90
2016,11,26,08,23,5.90
2016,11,26,08,24,5.90
2016,11,26,08,25,5.90
2016,11,26,08,26,5.80
2016,11,26,08,27,5.80
2016,11,26,08,28,5.80
2016,11,26,08,29,5.80
2016,11,26,08,30,5.80
2016,11,26,08,31,5.80
2016,11,26,08,32,5.80
2016,11,26,08,33,5.80
2016,11,26,08,34,5.80
2016,11,26,08,35,5.80
2016,11,26,08,36,5.80
2016,11,26,08,37,5.80
2016,11,26,08,38,5.80
2016,11,26,08,39,5.80
2016,11,26,08,40,5.80
2016,11,26,08,41,5.70
2016,11,26,08,42,5.70
2016,11,26,08,43,5.70
2016,11,26,08,44,5.70
2016,11,26,08,45,5.70
2016,11,26,08,46,5.70
2016,11,26,08,47,5.70
2016,11,26,08,48,5.70
2016,11,26,08,49,5.70
2016,11,26,08,50,5.70
2016,11,26,08,51,5.70
2016,11,26,08,52,5.70
2016,11,26,08,53,5.70
2016,11,26,08,54,5.70
2016,11,26,08,55,5.70
2016,11,26,08,56,5.80
2016,11,26,08,57,5.80
2016,11,26,08,58,5.80
2016,11,26,08,59,5.80
2016,11,26,09,00,5.70
2016,11,26,09,01,5.70
2016,11,26,09,02,5.70
2016,11,26,09,03,5.70
2016,11,26,09,04,5.70
2016,11,26,09,05,5.70
2016,11,26,09,06,5.70
2016,11,26,09,07,5.70
2016,11,26,09,08,5.70
2016,11,26,09,09,5.70
2016,11,26,09,10,5.70
2016,11,26,09,11,5.70
2016,11,26,09,12,5.70
2016,11,26,09,13,5.60
2016,11,26,09,14,5.60
2016,11,26,09,15,5.60
2016,11,26,09,16,5.60
2016,11,26,09,17,5.60
2016,11,26,09,18,5.60
2016,11,26,09,19,5.70
2016,11,26,09,20,5.70
2016,11,26,09,21,5.70
2016,11,26,09,22,5.70
2016,11,26,09,23,5.70
2016,11,26,09,24,5.70
2016,11,26,09,25,5.70
2016,11,26,09,26,5.70
2016,11,26,09,27,5.70
2016,11,26,09,28,5.70
2016,11,26,09,29,5.70
2016,11,26,09,30,5.70
2016,11,26,09,31,5.70
2016,11,26,09,32,5.70
2016,11,26,09,33,5.70
2016,11,26,09,34,5.70
2016,11,26,09,35,5.70
2016,11,26,09,36,5.70
2016,11,26,09,37,5.70
2016,11,26,09,38,5.70
2016,11,26,09,39,5.70
2016,11,26,09,40,5.70
2016,11,26,09,41,5.70
2016,11,26,09,42,5.70
2016,11,26,09,43,5.70
2016,11,26,09,44,5.70
2016,11,26,09,45,5.70
2016,11,26,09,46,5.80
2016,11,26,09,47,5.80
2016,11,26,09,48,5.80
2016,11,26,09,49,5.80
2016,11,26,09,50,5.80
2016,11,26,09,51,5.80
2016,11,26,09,52,5.80
2016,11,26,09,53,5.80
2016,11,26,09,54,5.80
2016,11,26,09,55,5.90
2016,11,26,09,56,5.90
2016,11,26,09,57,5.90
2016,11,26,09,58,5.90
2016,11,26,09,59,5.90
2016,11,26,10,00,5.90
2016,11,26,10,01,5.90
2016,11,26,10,02,5.90
2016,11,26,10,03,5.90
2016,11,26,10,04,6.00
2016,11,26,10,05,6.00
2016,11,26,10,06,6.00
2016,11,26,10,07,6.00
2016,11,26,10,08,6.00
2016,11,26,10,09,6.00
2016,11,26,10,10,6.00
2016,11,26,10,11,6.00
2016,11,26,10,12,6.00
2016,11,26,10,13,6.00
2016,11,26,10,14,6.00
2016,11,26,10,15,6.00
2016,11,26,10,16,6.00
2016,11,26,10,17,6.00
2016,11,26,10,18,6.00
2016,11,26,10,19,6.00
2016,11,26,10,20,6.00
2016,11,26,10,21,6.00
2016,11,26,10,22,6.10
2016,11,26,10,23,6.10
2016,11,26,10,24,6.10
2016,11,26,10,25,6.10
2016,11,26,10,26,6.10
2016,11,26,10,27,6.20
2016,11,26,10,28,6.20
2016,11,26,10,29,6.20
2016,11,26,10,30,6.20
2016,11,26,10,31,6.20
2016,11,26,10,32,6.20
2016,11,26,10,33,6.20
2016,11,26,10,34,6.20
2016,11,26,10,35,6.20
2016,11,26,10,36,6.20
2016,11,26,10,37,6.20
2016,11,26,10,38,6.20
2016,11,26,10,39,6.20
2016,11,26,10,40,6.20
2016,11,26,10,41,6.20
2016,11,26,10,42,6.20
2016,11,26,10,43,6.20
2016,11,26,10,44,6.20
2016,11,26,10,45,6.20
2016,11,26,10,46,6.20
2016,11,26,10,47,6.20
2016,11,26,10,48,6.20
2016,11,26,10,49,6.20
2016,11,26,10,50,6.30
2016,11,26,10,51,6.20
2016,11,26,10,52,6.30
2016,11,26,10,53,6.30
2016,11,26,10,54,6.30
2016,11,26,10,55,6.30
2016,11,26,10,56,6.30
2016,11,26,10,57,6.20
2016,11,26,10,58,6.20
2016,11,26,10,59,6.20
2016,11,26,11,00,6.20
2016,11,26,11,01,6.20
2016,11,26,11,02,6.20
2016,11,26,11,03,6.30
2016,11,26,11,04,6.30
2016,11,26,11,05,6.30
2016,11,26,11,06,6.30
2016,11,26,11,07,6.30
2016,11,26,11,08,6.30
2016,11,26,11,09,6.30
2016,11,26,11,10,6.30
2016,11,26,11,11,6.30
2016,11,26,11,12,6.30
2016,11,26,11,13,6.30
2016,11,26,11,14,6.30
2016,11,26,11,15,6.30
2016,11,26,11,16,6.30
2016,11,26,11,17,6.30
2016,11,26,11,18,6.30
2016,11,26,11,19,6.30
2016,11,26,11,20,6.30
2016,11,26,11,21,6.20
2016,11,26,11,22,6.20
2016,11,26,11,23,6.20
2016,11,26,11,24,6.20
2016,11,26,11,25,6.20
2016,11,26,11,26,6.20
2016,11,26,11,27,6.20
2016,11,26,11,28,6.20
2016,11,26,11,29,6.20
2016,11,26,11,30,6.10
2016,11,26,11,31,6.10
2016,11,26,11,32,6.10
2016,11,26,11,33,6.10
2016,11,26,11,34,6.10
2016,11,26,11,35,6.10
2016,11,26,11,36,6.10
2016,11,26,11,37,6.10
2016,11,26,11,38,6.10
2016,11,26,11,39,6.10
2016,11,26,11,40,6.10
2016,11,26,11,41,6.10
2016,11,26,11,42,6.00
2016,11,26,11,43,6.00
2016,11,26,11,44,6.00
2016,11,26,11,45,6.00
2016,11,26,11,46,6.00
2016,11,26,11,47,6.00
2016,11,26,11,48,6.00
2016,11,26,11,49,6.00
2016,11,26,11,50,6.00
2016,11,26,11,51,6.00
2016,11,26,11,52,6.00
2016,11,26,11,53,6.00
2016,11,26,11,54,6.00
2016,11,26,11,55,5.90
2016,11,26,11,56,5.90
2016,11,26,11,57,5.90
2016,11,26,11,58,5.90
2016,11,26,11,59,5.90
2016,11,26,12,00,5.90
2016,11,26,12,01,5.90
2016,11,26,12,02,5.90
2016,11,26,12,03,5.90
2016,11,26,12,04,5.80
2016,11,26,12,05,5.90
2016,11,26,12,06,5.80
2016,11,26,12,07,5.80
2016,11,26,12,08,5.80
2016,11,26,12,09,5.80
2016,11,26,12,10,5.80
2016,11,26,12,11,5.80
2016,11,26,12,12,5.80
2016,11,26,12,13,5.80
2016,11,26,12,14,5.80
2016,11,26,12,15,5.80
2016,11,26,12,16,5.70
2016,11,26,12,17,5.70
2016,11,26,12,18,5.70
2016,11,26,12,19,5.70
2016,11,26,12,20,5.70
2016,11,26,12,21,5.70
2016,11,26,12,22,5.70
2016,11,26,12,23,5.70
2016,11,26,12,24,5.70
2016,11,26,12,25,5.70
2016,11,26,12,26,5.70
2016,11,26,12,27,5.70
2016,11,26,12,28,5.70
2016,11,26,12,29,5.70
2016,11,26,12,30,5.80
2016,11,26,12,31,5.80
2016,11,26,12,32,5.80
2016,11,26,12,33,5.80
2016,11,26,12,34,5.80
2016,11,26,12,35,5.80
2016,11,26,12,36,5.80
2016,11,26,12,37,5.80
2016,11,26,12,38,5.80
2016,11,26,12,39,5.80
2016,11,26,12,40,5.80
2016,11,26,12,41,5.70
2016,11,26,12,42,5.80
2016,11,26,12,43,5.80
2016,11,26,12,44,5.80
2016,11,26,12,45,5.80
2016,11,26,12,46,5.80
2016,11,26,12,47,5.80
2016,11,26,12,48,5.80
2016,11,26,12,49,5.80
2016,11,26,12,50,5.80
2016,11,26,12,51,5.80
2016,11,26,12,52,5.70
2016,11,26,12,53,5.80
2016,11,26,12,54,5.70
2016,11,26,12,55,5.70
2016,11,26,12,56,5.70
2016,11,26,12,57,5.70
2016,11,26,12,58,5.70
2016,11,26,12,59,5.70
2016,11,26,13,00,5.70
2016,11,26,13,01,5.70
2016,11,26,13,02,5.70
2016,11,26,13,03,5.70
2016,11,26,13,04,5.70
2016,11,26,13,05,5.70
2016,11,26,13,06,5.70
2016,11,26,13,07,5.70
2016,11,26,13,08,5.70
2016,11,26,13,09,5.70
2016,11,26,13,10,5.70
2016,11,26,13,11,5.70
2016,11,26,13,12,5.70
2016,11,26,13,13,5.70
2016,11,26,13,14,5.70
2016,11,26,13,15,5.70
2016,11,26,13,16,5.70
2016,11,26,13,17,5.70
2016,11,26,13,18,5.70
2016,11,26,13,19,5.70
2016,11,26,13,20,5.70
2016,11,26,13,21,5.70
2016,11,26,13,22,5.70
2016,11,26,13,23,5.70
2016,11,26,13,24,5.70
2016,11,26,13,25,5.70
2016,11,26,13,26,5.70
2016,11,26,13,27,5.70
2016,11,26,13,28,5.70
2016,11,26,13,29,5.70
2016,11,26,13,30,5.70
2016,11,26,13,31,5.70
2016,11,26,13,32,5.70
2016,11,26,13,33,5.70
2016,11,26,13,34,5.70
2016,11,26,13,35,5.70
2016,11,26,13,36,5.70
2016,11,26,13,37,5.70
2016,11,26,13,38,5.70
2016,11,26,13,39,5.70
2016,11,26,13,40,5.70
2016,11,26,13,41,5.70
2016,11,26,13,42,5.70
2016,11,26,13,43,5.70
2016,11,26,13,44,5.70
2016,11,26,13,45,5.70
2016,11,26,13,46,5.70
2016,11,26,13,47,5.70
2016,11,26,13,48,5.80
2016,11,26,13,49,5.80
2016,11,26,13,50,5.80
2016,11,26,13,51,5.80
2016,11,26,13,52,5.80
2016,11,26,13,53,5.80
2016,11,26,13,54,5.80
2016,11,26,13,55,5.80
2016,11,26,13,56,5.80
2016,11,26,13,57,5.80
2016,11,26,13,58,5.80
2016,11,26,13,59,5.80
2016,11,26,14,00,5.80
2016,11,26,14,01,5.80
2016,11,26,14,02,5.80
2016,11,26,14,03,5.80
2016,11,26,14,04,5.80
2016,11,26,14,05,5.80
2016,11,26,14,06,5.80
2016,11,26,14,07,5.80
2016,11,26,14,08,5.80
2016,11,26,14,09,5.80
2016,11,26,14,10,5.80
2016,11,26,14,11,5.80
2016,11,26,14,12,5.80
2016,11,26,14,13,5.80
2016,11,26,14,14,5.80
2016,11,26,14,15,5.80
2016,11,26,14,16,5.80
2016,11,26,14,17,5.80
2016,11,26,14,18,5.80
2016,11,26,14,19,5.80
2016,11,26,14,20,5.80
2016,11,26,14,21,5.80
2016,11,26,14,22,5.80
2016,11,26,14,23,5.80
2016,11,26,14,24,5.80
2016,11,26,14,25,5.80
2016,11,26,14,26,5.80
2016,11,26,14,27,5.80
2016,11,26,14,28,5.80
2016,11,26,14,29,5.80
2016,11,26,14,30,5.70
2016,11,26,14,31,5.70
2016,11,26,14,32,5.70
2016,11,26,14,33,5.70
2016,11,26,14,34,5.70
2016,11,26,14,35,5.70
2016,11,26,14,36,5.70
2016,11,26,14,37,5.70
2016,11,26,14,38,5.70
2016,11,26,14,39,5.70
2016,11,26,14,40,5.70
2016,11,26,14,41,5.70
2016,11,26,14,42,5.60
2016,11,26,14,43,5.60
2016,11,26,14,44,5.60
2016,11,26,14,45,5.60
2016,11,26,14,46,5.60
2016,11,26,14,47,5.60
2016,11,26,14,48,5.60
2016,11,26,14,49,5.60
2016,11,26,14,50,5.60
2016,11,26,14,51,5.60
2016,11,26,14,52,5.60
2016,11,26,14,53,5.60
2016,11,26,14,54,5.60
2016,11,26,14,55,5.60
2016,11,26,14,56,5.60
2016,11,26,14,57,5.60
2016,11,26,14,58,5.60
2016,11,26,14,59,5.60
2016,11,26,15,00,5.60
2016,11,26,15,01,5.60
2016,11,26,15,02,5.60
2016,11,26,15,03,5.60
2016,11,26,15,04,5.60
2016,11,26,15,05,5.60
2016,11,26,15,06,5.60
2016,11,26,15,07,5.60
2016,11,26,15,08,5.60
2016,11,26,15,09,5.60
2016,11,26,15,10,5.60
2016,11,26,15,11,5.60
2016,11,26,15,12,5.60
2016,11,26,15,13,5.60
2016,11,26,15,14,5.60
2016,11,26,15,15,5.60
2016,11,26,15,16,5.60
2016,11,26,15,17,5.60
2016,11,26,15,18,5.60
2016,11,26,15,19,5.60
2016,11,26,15,20,5.60
2016,11,26,15,21,5.60
2016,11,26,15,22,5.60
2016,11,26,15,23,5.60
2016,11,26,15,24,5.60
2016,11,26,15,25,5.60
2016,11,26,15,26,5.60
2016,11,26,15,27,5.60
2016,11,26,15,28,5.60
2016,11,26,15,29,5.60
2016,11,26,15,30,5.50
2016,11,26,15,31,5.50
2016,11,26,15,32,5.60
2016,11,26,15,33,5.60
2016,11,26,15,34,5.60
2016,11,26,15,35,5.60
2016,11,26,15,36,5.60
2016,11,26,15,37,5.60
2016,11,26,15,38,5.60
2016,11,26,15,39,5.60
2016,11,26,15,40,5.60
2016,11,26,15,41,5.60
2016,11,26,15,42,5.60
2016,11,26,15,43,5.60
2016,11,26,15,44,5.60
2016,11,26,15,45,5.60
2016,11,26,15,46,5.60
2016,11,26,15,47,5.60
2016,11,26,15,48,5.60
2016,11,26,15,49,5.60
2016,11,26,15,50,5.60
2016,11,26,15,51,5.50
2016,11,26,15,52,5.50
2016,11,26,15,53,5.50
2016,11,26,15,54,5.50
2016,11,26,15,55,5.50
2016,11,26,15,56,5.50
2016,11,26,15,57,5.50
2016,11,26,15,58,5.50
2016,11,26,15,59,5.50
2016,11,26,16,00,5.50
2016,11,26,16,01,5.50
2016,11,26,16,02,5.50
2016,11,26,16,03,5.40
2016,11,26,16,04,5.40
2016,11,26,16,05,5.40
2016,11,26,16,06,5.40
2016,11,26,16,07,5.40
2016,11,26,16,08,5.40
2016,11,26,16,09,5.40
2016,11,26,16,10,5.40
2016,11,26,16,11,5.40
2016,11,26,16,12,5.40
2016,11,26,16,13,5.40
2016,11,26,16,14,5.40
2016,11,26,16,15,5.30
2016,11,26,16,16,5.30
2016,11,26,16,17,5.30
2016,11,26,16,18,5.30
2016,11,26,16,19,5.30
2016,11,26,16,20,5.30
2016,11,26,16,21,5.30
2016,11,26,16,22,5.30
2016,11,26,16,23,5.30
2016,11,26,16,24,5.30
2016,11,26,16,25,5.30
2016,11,26,16,26,5.30
2016,11,26,16,27,5.30
2016,11,26,16,28,5.30
2016,11,26,16,29,5.30
2016,11,26,16,30,5.30
2016,11,26,16,31,5.30
2016,11,26,16,32,5.30
2016,11,26,16,33,5.30
2016,11,26,16,34,5.30
2016,11,26,16,35,5.30
2016,11,26,16,36,5.30
2016,11,26,16,37,5.30
2016,11,26,16,38,5.30
2016,11,26,16,39,5.30
2016,11,26,16,40,5.30
2016,11,26,16,41,5.30
2016,11,26,16,42,5.30
2016,11,26,16,43,5.30
2016,11,26,16,44,5.30
2016,11,26,16,45,5.30
2016,11,26,16,46,5.30
2016,11,26,16,47,5.30
2016,11,26,16,48,5.30
2016,11,26,16,49,5.30
2016,11,26,16,50,5.30
2016,11,26,16,51,5.30
2016,11,26,16,52,5.30
2016,11,26,16,53,5.30
2016,11,26,16,54,5.30
2016,11,26,16,55,5.30
2016,11,26,16,56,5.30
2016,11,26,16,57,5.30
2016,11,26,16,58,5.30
2016,11,26,16,59,5.30
2016,11,26,17,00,5.30
2016,11,26,17,01,5.30
2016,11,26,17,02,5.30
2016,11,26,17,03,5.30
2016,11,26,17,04,5.30
2016,11,26,17,05,5.30
2016,11,26,17,06,5.30
2016,11,26,17,07,5.30
2016,11,26,17,08,5.30
2016,11,26,17,09,5.30
2016,11,26,17,10,5.30
2016,11,26,17,11,5.30
2016,11,26,17,12,5.30
2016,11,26,17,13,5.30
2016,11,26,17,14,5.30
2016,11,26,17,15,5.40
2016,11,26,17,16,5.40
2016,11,26,17,17,5.40
2016,11,26,17,18,5.40
2016,11,26,17,19,5.40
2016,11,26,17,20,5.30
2016,11,26,17,21,5.30
2016,11,26,17,22,5.30
2016,11,26,17,23,5.30
2016,11,26,17,24,5.30
2016,11,26,17,25,5.30
2016,11,26,17,26,5.30
2016,11,26,17,27,5.30
2016,11,26,17,28,5.30
2016,11,26,17,29,5.30
2016,11,26,17,30,5.30
2016,11,26,17,31,5.30
2016,11,26,17,32,5.30
2016,11,26,17,33,5.30
2016,11,26,17,34,5.30
2016,11,26,17,35,5.30
2016,11,26,17,36,5.30
2016,11,26,17,37,5.30
2016,11,26,17,38,5.30
2016,11,26,17,39,5.30
2016,11,26,17,40,5.30
2016,11,26,17,41,5.30
2016,11,26,17,42,5.30
2016,11,26,17,43,5.30
2016,11,26,17,44,5.30
2016,11,26,17,45,5.30
2016,11,26,17,46,5.30
2016,11,26,17,47,5.30
2016,11,26,17,48,5.30
2016,11,26,17,49,5.30
2016,11,26,17,50,5.30
2016,11,26,17,51,5.20
2016,11,26,17,52,5.20
2016,11,26,17,53,5.20
2016,11,26,17,54,5.20
2016,11,26,17,55,5.20
2016,11,26,17,56,5.20
2016,11,26,17,57,5.20
2016,11,26,17,58,5.20
2016,11,26,17,59,5.20
2016,11,26,18,00,5.20
2016,11,26,18,01,5.20
2016,11,26,18,02,5.20
2016,11,26,18,03,5.20
2016,11,26,18,04,5.20
2016,11,26,18,05,5.20
2016,11,26,18,06,5.20
2016,11,26,18,07,5.20
2016,11,26,18,08,5.20
2016,11,26,18,09,5.20
2016,11,26,18,10,5.20
2016,11,26,18,11,5.20
2016,11,26,18,12,5.20
2016,11,26,18,13,5.20
2016,11,26,18,14,5.20
2016,11,26,18,15,5.20
2016,11,26,18,16,5.10
2016,11,26,18,17,5.10
2016,11,26,18,18,5.10
2016,11,26,18,19,5.10
2016,11,26,18,20,5.10
2016,11,26,18,21,5.10
2016,11,26,18,22,5.10
2016,11,26,18,23,5.10
2016,11,26,18,24,5.10
2016,11,26,18,25,5.10
2016,11,26,18,26,5.10
2016,11,26,18,27,5.10
2016,11,26,18,28,5.10
2016,11,26,18,29,5.10
2016,11,26,18,30,5.10
2016,11,26,18,31,5.10
2016,11,26,18,32,5.10
2016,11,26,18,33,5.10
2016,11,26,18,34,5.10
2016,11,26,18,35,5.10
2016,11,26,18,36,5.10
2016,11,26,18,37,5.10
2016,11,26,18,38,5.10
2016,11,26,18,39,5.10
2016,11,26,18,40,5.10
2016,11,26,18,41,5.10
2016,11,26,18,42,5.10
2016,11,26,18,43,5.10
2016,11,26,18,44,5.10
2016,11,26,18,45,5.10
2016,11,26,18,46,5.10
2016,11,26,18,47,5.10
2016,11,26,18,48,5.10
2016,11,26,18,49,5.10
2016,11,26,18,50,5.10
2016,11,26,18,51,5.10
2016,11,26,18,52,5.10
2016,11,26,18,53,5.10
2016,11,26,18,54,5.10
2016,11,26,18,55,5.10
2016,11,26,18,56,5.10
2016,11,26,18,57,5.10
2016,11,26,18,58,5.10
2016,11,26,18,59,5.10
2016,11,26,19,00,5.10
2016,11,26,19,01,5.10
2016,11,26,19,02,5.10
2016,11,26,19,03,5.10
2016,11,26,19,04,5.10
2016,11,26,19,05,5.10
2016,11,26,19,06,5.10